Hourly Data Report for October 31, 2013

All times are specified in Local Standard Time (LST). Add 1 hour to adjust for Daylight Saving Time where and when it is observed.

PANGNIRTUNG
NUNAVUT

66°08'36.300" N
65°42'40.500" W
22.60 m
2403049
71826
WXP

Download Data

Hourly Data (October 2013)
Hourly Data Report for October 31, 2013
Temp Definition
°C
Dew Point Temp Definition
°C
Rel Hum Definition
%
Wind Dir Definition
10's deg

Wind Spd Definition
km/h
Visibility Definition
km
Stn Press Definition
kPa
Hmdx Definition


Wind Chill Definition


Weather Definition


TIME
00:00 -3.8 -11.2 56 11 9   100.30   -8 LegendNANA
01:00 -5.1 -11.2 62 11 13   100.31   -10 LegendNANA
02:00 -4.1 -10.3 62 11 19   100.31   -10 LegendNANA
03:00 -4.2 -10.1 63 15 20   100.30   -11 LegendNANA
04:00 -3.8 -10.8 58 12 13   100.29   -9 LegendNANA
05:00 -4.0 -10.9 59 14 19   100.29   -10 LegendNANA
06:00 -3.9 -11.7 55 9 11   100.30   -8 LegendNANA
07:00 -4.3 -11.3 58 11 19   100.32   -10 LegendNANA
08:00 -3.7 -12.4 51 12 13   100.31   -9 LegendNANA
09:00 -3.4 -11.9 52 15 17   100.30   -9 LegendNANA
10:00 -3.2 -12.0 51 14 19   100.28   -9 LegendNANA
11:00 -3.1 -11.3 53 12 13   100.26   -8 LegendNANA
12:00 -3.0 -11.7 51 9 11   100.25   -7 LegendNANA
13:00 -2.9 -12.2 49 14 9   100.25   -6 LegendNANA
14:00 -3.1 -12.1 50 10 4   100.25   -5 LegendNANA
15:00 -3.5 -12.0 52 15 13   100.26   -8 LegendNANA
16:00 -3.6 -11.6 54 13 11   100.27   -8 LegendNANA
17:00 -3.4 -12.0 51 15 13   100.27   -8 LegendNANA
18:00 -3.6 -11.6 54 16 9   100.27   -7 LegendNANA
19:00 -4.3 -11.0 60 18 2   100.27   -5 LegendNANA
20:00 -4.0 -11.4 56 19 7   100.28   -7 LegendNANA
21:00 -4.0 -11.0 58 16 15   100.27   -9 LegendNANA
22:00 -4.3 -10.9 60 16 6   100.24   -7 LegendNANA
23:00 -4.3 -11.6 57 20 7   100.23   -7 LegendNANA

Notes on Data Quality.

Legend

  • E = Estimated
  • M = Missing
  • NA = Not Available
  • ‡ = Partner data that is not subject to review by the National Climate Archives
Date modified: